PSJRH SBBH-SNAS

Flight info

Callsign PSJRH
Flight time 0h 55m
Altitude 6000
Route REA 190834S0443829W/N0179F085 DCT
Aircraft SR22/L-SDGRY/LB1

Departure

Time 2026-05-08 20:01
Airport Pampulha - Carlos Drummond de Andrade Airport (SBBH)

Arrival

Time 2026-05-08 20:56
Airport Três Marias Airport (SNAS)
Time Latitude Longitude Altitude Speed Heading
2026-05-08 19:49 -19.85165 -43.95367 2584 ft 0 kts 288°
2026-05-08 19:53 -19.85147 -43.95377 2580 ft 8 kts 354°
2026-05-08 19:53 -19.85099 -43.95397 2587 ft 11 kts 291°
2026-05-08 19:53 -19.85068 -43.95489 2585 ft 15 kts 298°
2026-05-08 19:54 -19.84998 -43.95541 2586 ft 11 kts 18°
2026-05-08 19:54 -19.84978 -43.95534 2587 ft 0 kts 18°
2026-05-08 19:57 -19.84977 -43.95534 2587 ft 2 kts 19°
2026-05-08 19:57 -19.84932 -43.95515 2591 ft 11 kts 15°
2026-05-08 19:58 -19.84863 -43.95608 2587 ft 23 kts 296°
2026-05-08 19:58 -19.84798 -43.95770 2582 ft 25 kts 294°
2026-05-08 19:58 -19.84745 -43.95942 2587 ft 25 kts 300°
2026-05-08 19:58 -19.84721 -43.96026 2585 ft 12 kts 123°
2026-05-08 19:59 -19.84730 -43.95996 2587 ft 0 kts 106°
2026-05-08 19:59 -19.84751 -43.95924 2584 ft 35 kts 108°
2026-05-08 19:59 -19.84903 -43.95486 2592 ft 85 kts 111°
2026-05-08 20:00 -19.85050 -43.95059 2648 ft 97 kts 103°
2026-05-08 20:00 -19.85357 -43.94109 2891 ft 103 kts 106°
2026-05-08 20:00 -19.85744 -43.93512 3106 ft 99 kts 140°
2026-05-08 20:00 -19.86434 -43.93427 3128 ft 117 kts 205°
2026-05-08 20:01 -19.86934 -43.94061 3348 ft 105 kts 249°
2026-05-08 20:01 -19.87154 -43.94825 3489 ft 105 kts 254°
2026-05-08 20:01 -19.87355 -43.95566 3565 ft 108 kts 255°
2026-05-08 20:01 -19.87547 -43.96327 3616 ft 111 kts 261°
2026-05-08 20:02 -19.87679 -43.97104 3787 ft 103 kts 262°
2026-05-08 20:02 -19.87808 -43.97865 3779 ft 111 kts 251°
2026-05-08 20:02 -19.87940 -43.98373 3860 ft 109 kts 263°
2026-05-08 20:02 -19.88131 -43.99175 3964 ft 108 kts 259°
2026-05-08 20:03 -19.88298 -43.99925 4169 ft 103 kts 261°
2026-05-08 20:03 -19.88457 -44.00641 4359 ft 96 kts 263°
2026-05-08 20:03 -19.88613 -44.01319 4554 ft 93 kts 261°
2026-05-08 20:03 -19.88766 -44.01962 4679 ft 89 kts 243°
2026-05-08 20:04 -19.88626 -44.02028 3497 ft 154 kts 44°
2026-05-08 20:04 -19.87847 -44.01347 3528 ft 138 kts 33°
2026-05-08 20:04 -19.86938 -44.01259 3462 ft 140 kts 334°
2026-05-08 20:04 -19.86463 -44.02043 3456 ft 143 kts 285°
2026-05-08 20:05 -19.86266 -44.03110 3320 ft 148 kts 284°
2026-05-08 20:05 -19.86093 -44.04142 3450 ft 139 kts 270°
2026-05-08 20:05 -19.86320 -44.05160 3574 ft 146 kts 247°
2026-05-08 20:05 -19.86779 -44.06126 3697 ft 146 kts 242°
2026-05-08 20:06 -19.87266 -44.07054 3809 ft 140 kts 240°
2026-05-08 20:06 -19.87770 -44.07930 4000 ft 138 kts 239°
2026-05-08 20:06 -19.88301 -44.08771 4202 ft 136 kts 237°
2026-05-08 20:06 -19.88848 -44.09574 4406 ft 132 kts 239°
2026-05-08 20:07 -19.89056 -44.10487 4596 ft 127 kts 266°
2026-05-08 20:07 -19.89173 -44.11424 4807 ft 124 kts 264°
2026-05-08 20:07 -19.89421 -44.12290 5025 ft 124 kts 250°
2026-05-08 20:07 -19.89745 -44.13187 5044 ft 139 kts 251°
2026-05-08 20:08 -19.90106 -44.14209 5054 ft 153 kts 251°
2026-05-08 20:08 -19.90730 -44.15156 5074 ft 160 kts 222°
2026-05-08 20:08 -19.91440 -44.15999 5234 ft 153 kts 239°
2026-05-08 20:08 -19.91803 -44.17047 5389 ft 147 kts 256°
2026-05-08 20:09 -19.92059 -44.18075 5529 ft 145 kts 257°
2026-05-08 20:09 -19.92323 -44.19150 5539 ft 155 kts 257°
2026-05-08 20:09 -19.92596 -44.20285 5550 ft 160 kts 256°
2026-05-08 20:09 -19.92872 -44.21445 5549 ft 165 kts 257°
2026-05-08 20:10 -19.93161 -44.22640 5547 ft 168 kts 256°
2026-05-08 20:10 -19.93452 -44.23840 5546 ft 168 kts 257°
2026-05-08 20:10 -19.93744 -44.25056 5538 ft 169 kts 257°
2026-05-08 20:10 -19.94033 -44.26265 5541 ft 170 kts 257°
2026-05-08 20:11 -19.94328 -44.27489 5552 ft 172 kts 258°
2026-05-08 20:11 -19.94626 -44.28724 5543 ft 172 kts 258°
2026-05-08 20:11 -19.94924 -44.29968 5535 ft 174 kts 257°
2026-05-08 20:11 -19.95210 -44.31207 5534 ft 173 kts 263°
2026-05-08 20:12 -19.95104 -44.32440 5626 ft 164 kts 288°
2026-05-08 20:12 -19.94806 -44.33162 5708 ft 159 kts 303°
2026-05-08 20:12 -19.93923 -44.34143 5853 ft 154 kts 327°
2026-05-08 20:12 -19.93271 -44.34487 5936 ft 151 kts 341°
2026-05-08 20:13 -19.92259 -44.34765 6030 ft 152 kts 346°
2026-05-08 20:13 -19.91221 -44.35058 6028 ft 156 kts 345°
2026-05-08 20:13 -19.90152 -44.35358 6029 ft 159 kts 347°
2026-05-08 20:13 -19.89070 -44.35640 6032 ft 161 kts 347°
2026-05-08 20:14 -19.87979 -44.35941 6037 ft 162 kts 346°
2026-05-08 20:14 -19.86885 -44.36250 6040 ft 163 kts 346°
2026-05-08 20:14 -19.85789 -44.36557 6038 ft 163 kts 346°
2026-05-08 20:14 -19.84692 -44.36866 6038 ft 163 kts 346°
2026-05-08 20:15 -19.83243 -44.37275 6045 ft 163 kts 346°
2026-05-08 20:15 -19.82499 -44.37483 6045 ft 164 kts 346°
2026-05-08 20:15 -19.81407 -44.37787 6043 ft 163 kts 346°
2026-05-08 20:15 -19.80299 -44.38099 6038 ft 163 kts 346°
2026-05-08 20:16 -19.79202 -44.38405 6028 ft 163 kts 346°
2026-05-08 20:16 -19.78124 -44.38706 6028 ft 163 kts 346°
2026-05-08 20:16 -19.77028 -44.39014 6028 ft 163 kts 346°
2026-05-08 20:16 -19.75930 -44.39320 6028 ft 163 kts 346°
2026-05-08 20:17 -19.74827 -44.39627 6031 ft 164 kts 346°
2026-05-08 20:17 -19.73727 -44.39934 6032 ft 164 kts 347°
2026-05-08 20:17 -19.72626 -44.40242 6030 ft 163 kts 346°
2026-05-08 20:17 -19.71533 -44.40548 6028 ft 163 kts 346°
2026-05-08 20:18 -19.70430 -44.40856 6028 ft 163 kts 346°
2026-05-08 20:18 -19.69329 -44.41150 6029 ft 164 kts 349°
2026-05-08 20:18 -19.68225 -44.41438 6030 ft 165 kts 346°
2026-05-08 20:18 -19.67112 -44.41744 6028 ft 165 kts 346°
2026-05-08 20:19 -19.66007 -44.42033 6026 ft 165 kts 346°
2026-05-08 20:19 -19.64891 -44.42318 6031 ft 166 kts 347°
2026-05-08 20:19 -19.63763 -44.42607 6032 ft 168 kts 347°
2026-05-08 20:19 -19.62623 -44.42900 6029 ft 168 kts 347°
2026-05-08 20:20 -19.61491 -44.43192 6026 ft 168 kts 346°
2026-05-08 20:20 -19.60357 -44.43485 6027 ft 168 kts 346°
2026-05-08 20:20 -19.59211 -44.43779 6024 ft 169 kts 347°
2026-05-08 20:20 -19.58065 -44.44074 6020 ft 168 kts 346°
2026-05-08 20:21 -19.56953 -44.44362 6024 ft 168 kts 346°
2026-05-08 20:21 -19.55798 -44.44660 6022 ft 168 kts 346°
2026-05-08 20:21 -19.54710 -44.44939 6020 ft 167 kts 346°
2026-05-08 20:21 -19.53878 -44.45154 6021 ft 166 kts 346°
2026-05-08 20:22 -19.52734 -44.45451 6022 ft 167 kts 347°
2026-05-08 20:22 -19.51646 -44.45880 6026 ft 168 kts 334°
2026-05-08 20:22 -19.50589 -44.46414 6024 ft 168 kts 336°
2026-05-08 20:22 -19.49524 -44.46934 6023 ft 168 kts 336°
2026-05-08 20:23 -19.48462 -44.47451 6022 ft 168 kts 336°
2026-05-08 20:23 -19.47399 -44.47972 6019 ft 168 kts 336°
2026-05-08 20:23 -19.46342 -44.48492 6021 ft 168 kts 335°
2026-05-08 20:23 -19.45275 -44.49012 6021 ft 170 kts 336°
2026-05-08 20:24 -19.44197 -44.49540 6020 ft 171 kts 335°
2026-05-08 20:24 -19.43116 -44.50070 6021 ft 171 kts 336°
2026-05-08 20:24 -19.42041 -44.50592 6020 ft 170 kts 335°
2026-05-08 20:24 -19.40972 -44.51119 6022 ft 167 kts 336°
2026-05-08 20:25 -19.39917 -44.51638 6021 ft 167 kts 335°
2026-05-08 20:25 -19.38858 -44.52156 6019 ft 168 kts 336°
2026-05-08 20:25 -19.37794 -44.52675 6019 ft 168 kts 336°
2026-05-08 20:25 -19.36734 -44.53192 6016 ft 168 kts 336°
2026-05-08 20:26 -19.35677 -44.53712 6015 ft 168 kts 336°
2026-05-08 20:26 -19.34615 -44.54231 6014 ft 168 kts 336°
2026-05-08 20:26 -19.33557 -44.54748 6012 ft 168 kts 336°
2026-05-08 20:26 -19.32494 -44.55267 6013 ft 167 kts 336°
2026-05-08 20:27 -19.31439 -44.55784 6013 ft 167 kts 336°
2026-05-08 20:27 -19.30386 -44.56298 6014 ft 166 kts 336°
2026-05-08 20:27 -19.29343 -44.56809 6012 ft 165 kts 336°
2026-05-08 20:27 -19.28305 -44.57316 6014 ft 164 kts 336°
2026-05-08 20:28 -19.27278 -44.57819 6013 ft 165 kts 336°
2026-05-08 20:28 -19.26240 -44.58325 6013 ft 167 kts 336°
2026-05-08 20:28 -19.25184 -44.58840 6014 ft 167 kts 336°
2026-05-08 20:28 -19.24124 -44.59355 6016 ft 167 kts 336°
2026-05-08 20:29 -19.23071 -44.59873 6014 ft 166 kts 336°
2026-05-08 20:29 -19.22024 -44.60385 6013 ft 166 kts 336°
2026-05-08 20:29 -19.20975 -44.60898 6014 ft 166 kts 336°
2026-05-08 20:29 -19.19930 -44.61408 6013 ft 166 kts 336°
2026-05-08 20:30 -19.18883 -44.61918 6014 ft 166 kts 336°
2026-05-08 20:30 -19.17834 -44.62429 6013 ft 166 kts 336°
2026-05-08 20:30 -19.16781 -44.62942 6011 ft 166 kts 336°
2026-05-08 20:30 -19.15736 -44.63454 6011 ft 166 kts 336°
2026-05-08 20:31 -19.14715 -44.63953 6185 ft 158 kts 335°
2026-05-08 20:31 -19.13752 -44.64488 6380 ft 155 kts 330°
2026-05-08 20:31 -19.12836 -44.65051 6557 ft 153 kts 331°
2026-05-08 20:31 -19.11902 -44.65620 6741 ft 153 kts 331°
2026-05-08 20:32 -19.10982 -44.66175 6926 ft 152 kts 331°
2026-05-08 20:32 -19.10061 -44.66728 7112 ft 152 kts 333°
2026-05-08 20:32 -19.09153 -44.67267 7297 ft 152 kts 332°
2026-05-08 20:32 -19.08238 -44.67818 7483 ft 151 kts 332°
2026-05-08 20:33 -19.07311 -44.68382 7677 ft 151 kts 332°
2026-05-08 20:33 -19.06415 -44.68927 7867 ft 151 kts 332°
2026-05-08 20:33 -19.05501 -44.69482 8057 ft 151 kts 332°
2026-05-08 20:33 -19.04584 -44.70040 8250 ft 151 kts 332°
2026-05-08 20:34 -19.03671 -44.70594 8447 ft 151 kts 332°
2026-05-08 20:34 -19.02739 -44.71158 8515 ft 159 kts 332°
2026-05-08 20:34 -19.00777 -44.72341 8527 ft 164 kts 332°
2026-05-08 20:35 -18.99780 -44.72944 8524 ft 166 kts 332°
2026-05-08 20:35 -18.98772 -44.73556 8524 ft 167 kts 332°
2026-05-08 20:35 -18.97772 -44.74164 8524 ft 167 kts 332°
2026-05-08 20:35 -18.96749 -44.74755 8523 ft 167 kts 335°
2026-05-08 20:36 -18.95714 -44.75324 8524 ft 168 kts 333°
2026-05-08 20:36 -18.94689 -44.75930 8524 ft 168 kts 332°
2026-05-08 20:36 -18.93672 -44.76541 8524 ft 168 kts 332°
2026-05-08 20:36 -18.92659 -44.77150 8520 ft 168 kts 333°
2026-05-08 20:37 -18.91638 -44.77763 8520 ft 168 kts 333°
2026-05-08 20:37 -18.90624 -44.78372 8520 ft 168 kts 333°
2026-05-08 20:37 -18.89605 -44.78983 8519 ft 168 kts 333°
2026-05-08 20:37 -18.88589 -44.79594 8520 ft 168 kts 333°
2026-05-08 20:38 -18.87573 -44.80203 8521 ft 169 kts 333°
2026-05-08 20:38 -18.86552 -44.80815 8519 ft 169 kts 333°
2026-05-08 20:38 -18.85531 -44.81427 8517 ft 168 kts 332°
2026-05-08 20:38 -18.84513 -44.82037 8517 ft 168 kts 332°
2026-05-08 20:39 -18.83497 -44.82647 8515 ft 168 kts 332°
2026-05-08 20:39 -18.82494 -44.83249 8516 ft 168 kts 332°
2026-05-08 20:39 -18.81481 -44.83856 8515 ft 169 kts 332°
2026-05-08 20:39 -18.80455 -44.84471 8516 ft 169 kts 332°
2026-05-08 20:40 -18.79434 -44.85082 8515 ft 169 kts 332°
2026-05-08 20:40 -18.78413 -44.85695 8513 ft 169 kts 332°
2026-05-08 20:40 -18.77386 -44.86310 8513 ft 169 kts 333°
2026-05-08 20:40 -18.76366 -44.86921 8513 ft 169 kts 333°
2026-05-08 20:41 -18.75339 -44.87535 8512 ft 169 kts 332°
2026-05-08 20:41 -18.74316 -44.88149 8511 ft 169 kts 332°
2026-05-08 20:41 -18.73294 -44.88761 8511 ft 169 kts 333°
2026-05-08 20:41 -18.72273 -44.89372 8511 ft 169 kts 333°
2026-05-08 20:42 -18.71250 -44.89984 8512 ft 169 kts 333°
2026-05-08 20:42 -18.70229 -44.90596 8511 ft 169 kts 333°
2026-05-08 20:42 -18.69204 -44.91209 8511 ft 169 kts 333°
2026-05-08 20:42 -18.68200 -44.91812 8511 ft 169 kts 332°
2026-05-08 20:43 -18.67164 -44.92431 8508 ft 169 kts 333°
2026-05-08 20:43 -18.66140 -44.93042 8510 ft 169 kts 333°
2026-05-08 20:43 -18.65117 -44.93653 8509 ft 170 kts 333°
2026-05-08 20:43 -18.64098 -44.94263 8510 ft 170 kts 333°
2026-05-08 20:44 -18.63053 -44.94887 8509 ft 170 kts 333°
2026-05-08 20:44 -18.62025 -44.95503 8509 ft 170 kts 333°
2026-05-08 20:44 -18.61089 -44.96247 8511 ft 172 kts 319°
2026-05-08 20:44 -18.60211 -44.97120 8512 ft 172 kts 320°
2026-05-08 20:45 -18.59309 -44.97950 8511 ft 172 kts 322°
2026-05-08 20:45 -18.58710 -44.98490 8511 ft 172 kts 322°
2026-05-08 20:45 -18.57496 -44.99585 8510 ft 171 kts 322°
2026-05-08 20:45 -18.56600 -45.00394 8509 ft 171 kts 322°
2026-05-08 20:46 -18.55685 -45.01217 8512 ft 172 kts 322°
2026-05-08 20:46 -18.54787 -45.02027 8512 ft 172 kts 322°
2026-05-08 20:46 -18.53880 -45.02845 8512 ft 171 kts 322°
2026-05-08 20:46 -18.52964 -45.03669 8512 ft 171 kts 322°
2026-05-08 20:47 -18.52062 -45.04486 8509 ft 171 kts 322°
2026-05-08 20:47 -18.51166 -45.05290 8510 ft 170 kts 322°
2026-05-08 20:47 -18.50269 -45.06097 8510 ft 169 kts 322°
2026-05-08 20:47 -18.49376 -45.06901 8510 ft 168 kts 322°
2026-05-08 20:48 -18.48483 -45.07705 8509 ft 169 kts 322°
2026-05-08 20:48 -18.47591 -45.08508 8509 ft 169 kts 322°
2026-05-08 20:48 -18.46694 -45.09316 8498 ft 170 kts 322°
2026-05-08 20:48 -18.45785 -45.10121 8291 ft 170 kts 323°
2026-05-08 20:49 -18.44883 -45.10926 8073 ft 170 kts 322°
2026-05-08 20:49 -18.43982 -45.11738 7847 ft 171 kts 322°
2026-05-08 20:49 -18.43079 -45.12554 7622 ft 171 kts 321°
2026-05-08 20:49 -18.42169 -45.13375 7393 ft 174 kts 322°
2026-05-08 20:50 -18.41241 -45.14209 7156 ft 176 kts 322°
2026-05-08 20:50 -18.40306 -45.15050 6914 ft 178 kts 321°
2026-05-08 20:50 -18.39360 -45.15900 6683 ft 179 kts 321°
2026-05-08 20:50 -18.38412 -45.16753 6443 ft 179 kts 321°
2026-05-08 20:51 -18.37465 -45.17602 6204 ft 178 kts 321°
2026-05-08 20:51 -18.36527 -45.18445 5970 ft 176 kts 321°
2026-05-08 20:51 -18.35598 -45.19281 5742 ft 175 kts 321°
2026-05-08 20:51 -18.34675 -45.20110 5511 ft 174 kts 321°
2026-05-08 20:52 -18.33751 -45.20940 5279 ft 174 kts 321°
2026-05-08 20:52 -18.32844 -45.21755 5054 ft 172 kts 322°
2026-05-08 20:52 -18.31940 -45.22559 4837 ft 165 kts 322°
2026-05-08 20:52 -18.31370 -45.23072 4696 ft 161 kts 322°
2026-05-08 20:53 -18.30282 -45.24047 4433 ft 148 kts 324°
2026-05-08 20:53 -18.29407 -45.24525 4249 ft 136 kts 349°
2026-05-08 20:53 -18.28800 -45.24598 4139 ft 130 kts
2026-05-08 20:53 -18.27679 -45.24262 3916 ft 124 kts 31°
2026-05-08 20:54 -18.27036 -45.23690 3754 ft 122 kts 43°
2026-05-08 20:54 -18.26432 -45.23094 3599 ft 118 kts 43°
2026-05-08 20:54 -18.25838 -45.22505 3445 ft 114 kts 41°
2026-05-08 20:54 -18.25305 -45.21975 3425 ft 96 kts 43°
2026-05-08 20:55 -18.24829 -45.21504 3194 ft 99 kts 41°
2026-05-08 20:55 -18.24495 -45.21170 3037 ft 94 kts 42°
2026-05-08 20:55 -18.24077 -45.20752 2919 ft 78 kts 36°
2026-05-08 20:55 -18.23641 -45.20340 2824 ft 87 kts 42°
2026-05-08 20:56 -18.23225 -45.19908 2766 ft 83 kts 45°
2026-05-08 20:56 -18.22819 -45.19485 2645 ft 83 kts 40°
2026-05-08 20:56 -18.22412 -45.19084 2574 ft 73 kts 39°
2026-05-08 20:56 -18.22098 -45.18770 2567 ft 48 kts 43°
2026-05-08 20:57 -18.21915 -45.18556 2564 ft 34 kts 39°
2026-05-08 20:57 -18.21822 -45.18452 2560 ft 21 kts 188°
2026-05-08 20:57 -18.21904 -45.18540 2563 ft 17 kts 223°
2026-05-08 20:57 -18.21975 -45.18643 2567 ft 18 kts 226°
2026-05-08 20:58 -18.22075 -45.18742 2568 ft 21 kts 223°
2026-05-08 20:58 -18.22187 -45.18852 2567 ft 22 kts 223°
2026-05-08 20:58 -18.22318 -45.18985 2569 ft 29 kts 221°
2026-05-08 20:58 -18.22459 -45.19128 2576 ft 27 kts 223°
2026-05-08 20:59 -18.22589 -45.19266 2566 ft 26 kts 227°
2026-05-08 20:59 -18.22664 -45.19384 2574 ft 11 kts 312°
2026-05-08 20:59 -18.22591 -45.19405 2569 ft 13 kts 336°
2026-05-08 20:59 -18.22566 -45.19444 2566 ft 0 kts 186°
2026-05-08 21:00 -18.22571 -45.19442 2566 ft 0 kts 131°